STARLINK-1286 (45417 NORAD) Tracking and Keplerian Element Data

This shows tracking and keplerian element data for the satellite.

Feedback or suggestion? Click here.




ElementValue
Catalog45417
NameSTARLINK-1286
Epoch Orbit1091
Epoch Day145.25001157
Epoch Year2020
RAAN302.5021
Inclination52.9978
Eccentricity0.0001278
Argument of Perigee89.9336
Mean Anonmoly244.5595
Mean Motion15.03932497
Decay Rate0.00026705
L11 45417U 20019BK 20145.25001157 .00026705 00000-0 19280-2 0 9998
L22 45417 52.9978 302.5021 0001278 89.9336 244.5595 15.03932497 10910

Live tracking and technical data element details for STARLINK-1286 (NORAD 45417). STARLINK-1286 can be tracked NOW for your location showing map with azimuth and elevation plus other details from your city location.

Track the satellite on the map from your city or location and see movement details for azimuth, elevation, latitude, longitude, range, height, and movement on the map or in text.







IsCatalogInMostPopularTable: catalog: 45417, numindb: 23
Update: records affected: 1



GetName: 45417 STARLINK-1286

Hit Count: updated at: Tue, 26 May 2020 02:40:45 GMT